GW6365 Weather Reports


time (UTC)temp
F
wind
direction
speed
knots
gust
knots
rain 1hr
in
rain 24hr
in
rain mn
in
humidity
%
barometer
mb
20260507213107 87 240 6.1 10.4 0.00 0.00 0.00 69 994.8
20260507212600 87 275 5.2 10.4 0.00 0.00 0.00 69 994.7
20260507212100 88 271 5.2 10.4 0.00 0.00 0.00 68 994.8
20260507211604 87 259 3.5 9.6 0.00 0.00 0.00 69 995.0
20260507211100 87 255 4.3 11.3 0.00 0.00 0.00 70 995.1
20260507210600 87 225 6.1 12.2 0.00 0.00 0.00 69 995.1
20260507210100 87 234 6.1 12.2 0.00 0.00 0.00 70 995.1
20260507210002 87 285 5.2 11.3 0.00 0.00 0.00 71 995.1
20260507205601 87 224 5.2 12.2 0.00 0.00 0.00 72 995.0
20260507205503 86 295 7.0 12.2 0.00 0.00 0.00 72 995.0
20260507205002 86 230 7.0 13.9 0.00 0.00 0.00 72 995.0
20260507204503 86 265 6.1 13.0 0.00 0.00 0.00 73 995.1
20260507204102 86 281 8.7 13.9 0.00 0.00 0.00 74 995.2
20260507204002 86 263 7.0 13.9 0.00 0.00 0.00 74 995.0
20260507203601 86 281 8.7 13.9 0.00 0.00 0.00 74 995.2
20260507203101 86 298 7.8 13.9 0.00 0.00 0.00 74 995.3
20260507202600 86 263 7.8 14.8 0.00 0.00 0.00 74 995.2
20260507202100 86 259 7.0 15.6 0.00 0.00 0.00 74 995.2
20260507202001 86 238 7.0 15.6 0.00 0.00 0.00 74 995.2
20260507201606 86 244 8.7 13.9 0.00 0.00 0.00 73 995.2
20260507201100 86 290 8.7 13.9 0.00 0.00 0.00 73 995.4
20260507200503 87 265 7.0 13.9 0.00 0.00 0.00 71 995.4
20260507195601 86 284 8.7 13.9 0.00 0.00 0.00 71 995.6
20260507195059 86 280 8.7 13.9 0.00 0.00 0.00 70 995.7
20260507194609 86 242 8.7 13.9 0.00 0.00 0.00 69 995.7
20260507194103 87 227 6.1 11.3 0.00 0.00 0.00 71 995.9
20260507193602 87 233 5.2 13.0 0.00 0.00 0.00 71 995.9
20260507193100 86 273 6.1 13.0 0.00 0.00 0.00 73 996.0
20260507192559 86 252 7.0 13.9 0.00 0.00 0.00 73 996.1
20260507192100 86 225 7.0 13.9 0.00 0.00 0.00 72 996.2
20260507191617 87 224 7.8 12.2 0.00 0.00 0.00 72 996.3
20260507191059 86 274 7.8 12.2 0.00 0.00 0.00 71 996.3
20260507190600 86 232 7.0 13.0 0.00 0.00 0.00 71 996.5
20260507190100 86 303 7.8 10.4 0.00 0.00 0.00 72 996.7
20260507185559 86 178 7.0 14.8 0.00 0.00 0.00 72 996.8
20260507185059 86 199 7.0 14.8 0.00 0.00 0.00 71 996.8
20260507184608 86 221 5.2 14.8 0.00 0.00 0.00 72 996.8
20260507184100 86 306 7.0 14.8 0.00 0.00 0.00 72 996.9
20260507183559 87 250 7.8 10.4 0.00 0.00 0.00 72 997.0
20260507183104 87 225 7.0 13.0 0.00 0.00 0.00 71 997.1
20260507182603 87 227 7.8 13.0 0.00 0.00 0.00 71 997.1
20260507182100 87 242 5.2 11.3 0.00 0.00 0.00 71 997.1
20260507181600 87 269 7.0 11.3 0.00 0.00 0.00 70 997.1
20260507181100 88 297 4.3 10.4 0.00 0.00 0.00 70 997.1
20260507180600 88 254 4.3 11.3 0.00 0.00 0.00 71 997.0
20260507175600 87 238 5.2 11.3 0.00 0.00 0.00 71 997.2
20260507175100 87 225 5.2 11.3 0.00 0.00 0.00 72 997.3
20260507174600 87 279 5.2 10.4 0.00 0.00 0.00 71 997.4
20260507174103 88 213 4.3 10.4 0.00 0.00 0.00 70 997.4
20260507173600 88 273 2.6 8.7 0.00 0.00 0.00 72 997.4
20260507173100 87 271 4.3 8.7 0.00 0.00 0.00 71 997.6
20260507172600 87 242 3.5 8.7 0.00 0.00 0.00 71 997.6
20260507172101 87 219 4.3 7.8 0.00 0.00 0.00 70 997.5
20260507171604 88 280 4.3 10.4 0.00 0.00 0.00 70 997.5
20260507171100 87 322 2.6 10.4 0.00 0.00 0.00 70 997.7
20260507170600 87 273 2.6 8.7 0.00 0.00 0.00 71 997.8
20260507165559 88 259 4.3 8.7 0.00 0.00 0.00 67 997.8
20260507165059 90 247 3.5 6.1 0.00 0.00 0.00 64 997.9
20260507164633 90 171 0.0 1.7 0.00 0.00 0.00 58 998.0
20260507164059 89 306 0.0 1.7 0.00 0.00 0.00 58 997.9
20260507163600 89 355 0.0 1.7 0.00 0.00 0.00 59 998.1
20260507163101 89 63 0.0 1.7 0.00 0.00 0.00 60 998.3
20260507162559 88 61 0.0 1.7 0.00 0.00 0.00 62 998.3
20260507162100 88 287 0.0 1.7 0.00 0.00 0.00 61 998.3
20260507161607 88 22 0.0 1.7 0.00 0.00 0.00 62 998.2
20260507161059 88 89 0.0 2.6 0.00 0.00 0.00 63 998.3
20260507160559 88 80 0.0 2.6 0.00 0.00 0.00 65 998.3
20260507160100 87 118 0.9 6.1 0.00 0.00 0.00 64 998.6
20260507155559 87 121 0.0 6.1 0.00 0.00 0.00 64 998.5
20260507155100 87 99 0.0 1.7 0.00 0.00 0.00 65 998.6
20260507154600 87 120 0.0 1.7 0.00 0.00 0.00 65 998.5
20260507154059 86 164 0.0 3.5 0.00 0.00 0.00 65 998.4
20260507153559 86 108 0.0 3.5 0.00 0.00 0.00 65 998.6
20260507153059 86 90 0.0 2.6 0.00 0.00 0.00 65 998.7
20260507152600 86 89 0.0 2.6 0.00 0.00 0.00 67 998.6
20260507152103 86 136 0.9 2.6 0.00 0.00 0.00 68 998.7
20260507151604 86 64 0.0 1.7 0.00 0.00 0.00 68 998.7
20260507151059 85 53 0.0 4.3 0.00 0.00 0.00 69 998.8
20260507150559 85 57 0.0 4.3 0.00 0.00 0.00 69 999.0
20260507150100 85 78 0.0 1.7 0.00 0.00 0.00 70 998.8
20260507150001 85 51 0.0 1.7 0.00 0.00 0.00 70 998.9
20260507145602 84 49 0.0 1.7 0.00 0.00 0.00 70 998.9
20260507145059 84 65 0.9 2.6 0.00 0.00 0.00 71 999.2
20260507144604 84 55 0.9 3.5 0.00 0.00 0.00 71 999.2
20260507144101 84 57 0.9 3.5 0.00 0.00 0.00 71 999.3
20260507143559 84 78 0.9 3.5 0.00 0.00 0.00 72 999.1
20260507143111 84 57 0.9 3.5 0.00 0.00 0.00 72 999.0
20260507142600 83 71 0.0 1.7 0.00 0.00 0.00 73 999.0
20260507142059 83 56 0.0 2.6 0.00 0.00 0.00 75 998.8
20260507141623 82 74 0.9 2.6 0.00 0.00 0.00 75 998.9
20260507141100 82 63 0.0 2.6 0.00 0.00 0.00 77 998.9
20260507140602 82 58 0.0 2.6 0.00 0.00 0.00 77 998.9
20260507140059 81 73 0.0 1.7 0.00 0.00 0.00 78 998.8
20260507140000 81 74 0.0 1.7 0.00 0.00 0.00 78 998.7
20260507135559 81 40 0.0 2.6 0.00 0.00 0.00 78 998.7
20260507135059 81 44 0.9 2.6 0.00 0.00 0.00 77 998.6
20260507134612 81 49 0.0 1.7 0.00 0.00 0.00 78 998.5
20260507134100 81 53 0.0 1.7 0.00 0.00 0.00 79 998.3
20260507133559 81 65 0.0 1.7 0.00 0.00 0.00 79 998.3
20260507133110 81 56 0.0 1.7 0.00 0.00 0.00 80 998.3
20260507132601 81 86 0.0 0.0 0.00 0.00 0.00 80 998.2
20260507132100 80 105 0.0 0.0 0.00 0.00 0.00 82 998.0
20260507131614 79 287 0.0 0.0 0.00 0.00 0.00 82 997.9
20260507131100 79 287 0.0 0.0 0.00 0.00 0.00 83 997.9
20260507130600 79 287 0.0 0.0 0.00 0.00 0.00 83 998.0
20260507130100 79 287 0.0 0.0 0.00 0.00 0.00 83 998.0
20260507130001 79 287 0.0 0.0 0.00 0.00 0.00 83 997.9
20260507125559 78 287 0.0 0.0 0.00 0.00 0.00 83 997.8
20260507125100 78 287 0.0 0.0 0.00 0.00 0.00 83 997.7
20260507124600 78 287 0.0 0.0 0.00 0.00 0.00 83 997.7
20260507124059 78 313 0.0 1.7 0.00 0.00 0.00 83 997.6
20260507123600 78 313 0.0 1.7 0.00 0.00 0.00 83 997.5
20260507123124 78 296 0.9 1.7 0.00 0.00 0.00 83 997.6
20260507122601 78 295 0.9 1.7 0.00 0.00 0.00 83 997.5
20260507122059 78 295 0.9 2.6 0.00 0.00 0.00 83 997.4
20260507121601 78 286 1.7 2.6 0.00 0.00 0.00 83 997.2
20260507121100 78 294 1.7 2.6 0.00 0.00 0.00 83 997.3
20260507120559 77 281 0.9 2.6 0.00 0.00 0.00 83 997.2
20260507120059 77 281 0.9 2.6 0.00 0.00 0.00 83 997.1
20260507120001 77 307 0.9 2.6 0.00 0.00 0.00 83 997.1
20260507115600 77 298 0.9 2.6 0.00 0.00 0.00 83 997.0
20260507115059 77 294 0.9 2.6 0.00 0.00 0.00 83 996.9
20260507114601 77 282 1.7 3.5 0.00 0.00 0.00 83 997.0
20260507114100 77 288 1.7 3.5 0.00 0.00 0.00 83 997.0
20260507113600 77 283 0.9 1.7 0.00 0.00 0.00 83 996.9
20260507113059 78 284 0.0 1.7 0.00 0.00 0.00 83 996.9
20260507112559 78 289 0.0 0.0 0.00 0.00 0.00 83 996.8
20260507112100 78 294 0.0 0.0 0.00 0.00 0.00 83 996.8
20260507111600 78 290 0.0 0.0 0.00 0.00 0.00 82 996.8
20260507111100 78 279 0.0 0.0 0.00 0.00 0.00 82 996.7
20260507110600 78 294 0.0 0.0 0.00 0.00 0.00 81 996.6
20260507110100 78 301 0.0 0.0 0.00 0.00 0.00 81 996.7
20260507105601 78 301 0.0 0.0 0.00 0.00 0.00 80 996.5
20260507105059 78 296 0.0 0.0 0.00 0.00 0.00 80 996.4
20260507104605 78 292 0.0 0.0 0.00 0.00 0.00 80 996.5
20260507104105 78 269 0.0 0.0 0.00 0.00 0.00 79 996.4
20260507103602 79 294 0.0 0.0 0.00 0.00 0.00 79 996.3
20260507103059 79 300 0.0 0.0 0.00 0.00 0.00 79 996.3
20260507102600 79 305 0.0 0.0 0.00 0.00 0.00 80 996.3
20260507102105 79 302 0.0 0.0 0.00 0.00 0.00 80 996.2
20260507101602 79 281 0.0 1.7 0.00 0.00 0.00 80 996.1
20260507101103 79 299 0.0 2.6 0.00 0.00 0.00 80 996.1
20260507100559 79 279 0.9 2.6 0.00 0.00 0.00 80 996.2
20260507100001 79 277 0.0 0.0 0.00 0.00 0.00 81 996.3
20260507095559 79 275 0.0 0.0 0.00 0.00 0.00 81 996.3
20260507095059 79 256 0.0 0.9 0.00 0.00 0.00 81 996.3
20260507094600 79 293 0.0 2.6 0.00 0.00 0.00 81 996.3
20260507094103 79 282 0.0 2.6 0.00 0.00 0.00 80 996.4
20260507093559 79 292 0.0 0.0 0.00 0.00 0.00 80 996.4
20260507093100 80 316 0.0 1.7 0.00 0.00 0.00 80 996.4
20260507092559 80 297 0.0 1.7 0.00 0.00 0.00 80 996.5
20260507092101 80 284 0.0 0.0 0.00 0.00 0.00 79 996.4
20260507091559 80 285 0.0 0.0 0.00 0.00 0.00 80 996.4
20260507091102 80 281 0.0 0.0 0.00 0.00 0.00 80 996.5
20260507090600 80 286 0.0 0.0 0.00 0.00 0.00 80 996.5
20260507090104 79 284 0.0 0.0 0.00 0.00 0.00 80 996.5
20260507085559 79 298 0.0 0.0 0.00 0.00 0.00 81 996.5
20260507085059 79 285 0.0 0.0 0.00 0.00 0.00 81 996.6
20260507084600 79 301 0.0 0.0 0.00 0.00 0.00 82 996.8
20260507084059 79 278 0.0 0.9 0.00 0.00 0.00 82 996.7
20260507083603 79 267 0.0 0.9 0.00 0.00 0.00 82 996.8
20260507083100 79 284 0.0 0.9 0.00 0.00 0.00 81 997.0
20260507082559 79 285 0.0 1.7 0.00 0.00 0.00 81 996.9
20260507082100 79 278 0.9 1.7 0.00 0.00 0.00 81 997.0
20260507081602 79 306 0.9 1.7 0.00 0.00 0.00 82 996.9
20260507081104 79 306 0.0 1.7 0.00 0.00 0.00 82 997.1
20260507080601 79 289 0.0 1.7 0.00 0.00 0.00 83 997.2
20260507080120 79 291 0.9 1.7 0.00 0.00 0.00 84 997.3
20260507075602 79 284 0.0 1.7 0.00 0.00 0.00 84 997.5
20260507075101 79 321 0.0 1.7 0.00 0.00 0.00 85 997.5
20260507074600 79 275 0.0 1.7 0.00 0.00 0.00 84 997.6
20260507074501 79 287 0.0 1.7 0.00 0.00 0.00 84 997.5
20260507074100 79 273 0.0 1.7 0.00 0.00 0.00 85 997.6
20260507073603 79 277 0.0 1.7 0.00 0.00 0.00 84 997.7
20260507073059 79 265 0.0 1.7 0.00 0.00 0.00 85 997.8
20260507072602 79 288 0.0 1.7 0.00 0.00 0.00 85 997.8
20260507072059 79 284 0.9 1.7 0.00 0.00 0.00 85 997.9
20260507071605 79 257 0.0 1.7 0.00 0.00 0.00 85 998.0
20260507071059 79 257 0.0 1.7 0.00 0.00 0.00 85 998.0
20260507070559 79 281 0.0 1.7 0.00 0.00 0.00 85 998.1
20260507070106 79 289 0.9 2.6 0.00 0.00 0.00 85 998.2
20260507070002 79 306 0.9 2.6 0.00 0.00 0.00 85 998.2
20260507065501 80 275 0.9 2.6 0.00 0.00 0.00 85 998.4
20260507065001 80 270 0.0 1.7 0.00 0.00 0.00 85 998.5
20260507064503 80 275 0.0 0.0 0.00 0.00 0.00 84 998.7
20260507064001 81 278 0.0 0.0 0.00 0.00 0.00 84 998.8
20260507063502 81 278 0.0 0.0 0.00 0.00 0.00 83 998.8
20260507063001 81 278 0.0 0.0 0.00 0.00 0.00 83 998.9
20260507062502 81 316 0.0 0.0 0.00 0.00 0.00 83 999.0
20260507062001 81 58 0.0 0.0 0.00 0.00 0.00 83 999.0
20260507061502 81 42 0.0 0.0 0.00 0.00 0.00 82 999.1
20260507061004 82 59 0.0 0.0 0.00 0.00 0.00 82 999.1
20260507060502 82 59 0.0 0.0 0.00 0.00 0.00 82 999.3
20260507060005 82 59 0.0 0.0 0.00 0.00 0.00 82 999.3
20260507055503 82 59 0.0 0.0 0.00 0.00 0.00 82 999.3
20260507055002 82 59 0.0 0.0 0.00 0.00 0.00 82 999.2
20260507054504 82 79 0.0 0.0 0.00 0.00 0.00 81 999.3
20260507054002 82 87 0.0 0.0 0.00 0.00 0.00 82 999.2
20260507053501 82 83 0.0 0.0 0.00 0.00 0.00 82 999.3
20260507053006 82 39 0.0 0.0 0.00 0.00 0.00 82 999.3
20260507052501 82 63 0.0 0.0 0.00 0.00 0.00 81 999.3
20260507052002 82 63 0.0 0.0 0.00 0.00 0.00 82 999.3
20260507051500 82 63 0.0 0.0 0.00 0.00 0.00 82 999.4
20260507051002 82 63 0.0 0.0 0.00 0.00 0.00 82 999.4
20260507050501 82 63 0.0 0.0 0.00 0.00 0.00 82 999.4
20260507045601 81 337 0.0 0.0 0.00 0.00 0.00 84 999.4
20260507045001 81 290 0.0 0.9 0.00 0.00 0.00 85 999.3
20260507044601 81 192 0.0 1.7 0.00 0.00 0.00 85 999.3
20260507044103 81 267 0.0 3.5 0.00 0.00 0.00 85 999.2
20260507043600 81 225 0.9 3.5 0.00 0.00 0.00 84 999.1
20260507043002 81 242 1.7 3.5 0.00 0.00 0.00 84 999.1
20260507042602 82 259 0.9 2.6 0.00 0.00 0.00 84 999.0
20260507042100 82 269 0.9 2.6 0.00 0.00 0.00 84 999.0
20260507042001 82 269 0.0 2.6 0.00 0.00 0.00 83 999.0
20260507041600 82 198 0.9 1.7 0.00 0.00 0.00 83 998.8
20260507041001 82 243 0.9 3.5 0.00 0.00 0.00 83 998.8
20260507040601 82 245 1.7 3.5 0.00 0.00 0.00 83 998.7
20260507040002 82 231 0.0 7.0 0.00 0.00 0.00 82 998.7
20260507035504 82 250 0.9 7.0 0.00 0.00 0.00 82 998.6
20260507035002 82 186 0.9 5.2 0.00 0.00 0.00 82 998.5
20260507034501 82 202 0.9 7.0 0.00 0.00 0.00 83 998.5
20260507034001 82 311 0.9 7.0 0.00 0.00 0.00 83 998.4
20260507033503 82 265 3.5 7.0 0.00 0.00 0.00 83 998.3
20260507033002 82 229 0.9 9.6 0.00 0.00 0.00 83 998.3
20260507032501 82 188 1.7 9.6 0.00 0.00 0.00 82 998.1
20260507032001 82 270 2.6 10.4 0.00 0.00 0.00 82 998.0
20260507031506 82 271 3.5 10.4 0.00 0.00 0.00 81 997.9
20260507031002 82 263 5.2 12.2 0.00 0.00 0.00 82 997.9
20260507030502 82 288 2.6 9.6 0.00 0.00 0.00 82 998.0
20260507030003 82 291 5.2 9.6 0.00 0.00 0.00 82 998.0
20260507025600 82 281 3.5 8.7 0.00 0.00 0.00 82 998.1
20260507025100 82 210 2.6 7.8 0.00 0.00 0.00 82 998.0
20260507024600 82 273 3.5 8.7 0.00 0.00 0.00 82 998.1
20260507024100 82 261 2.6 11.3 0.00 0.00 0.00 82 998.1
20260507023600 82 267 6.1 11.3 0.00 0.00 0.00 81 998.1
20260507023100 82 251 4.3 12.2 0.00 0.00 0.00 82 998.1
20260507022600 82 302 6.1 12.2 0.00 0.00 0.00 81 998.1
20260507022100 82 255 5.2 11.3 0.00 0.00 0.00 81 998.1
20260507022001 82 279 6.1 11.3 0.00 0.00 0.00 81 998.2
20260507021600 82 285 7.0 11.3 0.00 0.00 0.00 81 998.2
20260507021100 82 283 5.2 11.3 0.00 0.00 0.00 81 998.1
20260507020603 82 274 5.2 10.4 0.00 0.00 0.00 81 998.0
20260507020001 82 201 5.2 9.6 0.00 0.00 0.00 81 998.0
20260507015503 82 298 6.1 9.6 0.00 0.00 0.00 81 998.0
20260507015100 83 279 5.2 11.3 0.00 0.00 0.00 81 997.9
20260507015002 83 263 5.2 11.3 0.00 0.00 0.00 81 997.9
20260507014602 83 281 5.2 11.3 0.00 0.00 0.00 81 998.0
20260507014100 83 277 3.5 8.7 0.00 0.00 0.00 81 997.9
20260507013600 83 290 4.3 10.4 0.00 0.00 0.00 81 998.0
20260507013102 83 248 5.2 10.4 0.00 0.00 0.00 81 998.0
20260507012501 83 238 3.5 9.6 0.00 0.00 0.00 81 997.9
20260507012101 83 267 4.3 9.6 0.00 0.00 0.00 81 998.0
20260507011601 83 248 1.7 9.6 0.00 0.00 0.00 81 998.0
20260507011501 83 245 3.5 9.6 0.00 0.00 0.00 81 998.0
20260507011102 83 248 4.3 9.6 0.00 0.00 0.00 81 998.0
20260507010600 83 269 5.2 11.3 0.00 0.00 0.00 81 997.9
20260507010116 83 333 4.3 11.3 0.00 0.00 0.00 81 997.6
20260507010004 83 267 3.5 11.3 0.00 0.00 0.00 81 997.6
20260507005501 83 296 5.2 11.3 0.00 0.00 0.00 81 997.6
20260507005004 83 265 4.3 9.6 0.00 0.00 0.00 80 997.5
20260507004501 83 298 3.5 9.6 0.00 0.00 0.00 81 997.3
20260507004001 83 271 1.7 9.6 0.00 0.00 0.00 81 997.2
20260507003501 83 208 2.6 9.6 0.00 0.00 0.00 81 997.2
20260507003000 83 261 4.3 10.4 0.00 0.00 0.00 80 997.2
20260507002502 83 234 3.5 14.8 0.00 0.00 0.00 80 997.1
20260507002002 83 263 4.3 14.8 0.00 0.00 0.00 80 997.1
20260507001501 83 261 3.5 11.3 0.00 0.00 0.00 80 997.1
20260507001001 84 192 5.2 11.3 0.00 0.00 0.00 80 997.0
20260507000502 83 228 2.6 11.3 0.00 0.00 0.00 80 996.8
20260507000002 83 178 3.5 15.6 0.00 0.00 0.00 80 996.9
20260506235601 84 222 4.3 15.6 0.00 0.00 0.00 80 996.8
20260506235103 84 216 4.3 13.9 0.00 0.00 0.00 80 996.6
20260506234601 84 225 6.1 13.9 0.00 0.00 0.00 80 996.4
20260506234100 84 199 5.2 11.3 0.00 0.00 0.00 80 996.3
20260506233601 84 306 5.2 13.9 0.00 0.00 0.00 80 996.4
20260506233503 84 291 7.0 13.9 0.00 0.00 0.00 80 996.5
20260506233100 84 203 6.1 13.9 0.00 0.00 0.00 79 996.5
20260506232603 84 265 7.0 13.9 0.00 0.00 0.00 79 996.5
20260506232100 84 284 7.0 13.9 0.00 0.00 0.00 78 996.5
20260506232000 85 238 7.8 13.9 0.00 0.00 0.00 78 996.5
20260506231612 85 233 3.5 13.9 0.00 0.00 0.00 77 996.4
20260506231501 85 248 2.6 13.9 0.00 0.00 0.00 77 996.5
20260506231059 85 227 4.3 11.3 0.00 0.00 0.00 77 996.4
20260506230600 85 289 6.1 13.0 0.00 0.00 0.00 76 996.3
20260506230124 85 263 3.5 11.3 0.00 0.00 0.00 76 996.3
20260506225600 85 263 5.2 12.2 0.00 0.00 0.00 76 996.4
20260506225001 85 229 3.5 13.0 0.00 0.00 0.00 76 996.4
20260506224603 85 231 5.2 20.0 0.00 0.00 0.00 77 996.4
20260506224101 85 250 7.8 20.0 0.00 0.00 0.00 77 996.3
20260506223600 85 286 6.1 13.0 0.00 0.00 0.00 77 996.3
20260506223101 86 292 6.1 12.2 0.00 0.00 0.00 76 996.3
20260506222600 86 298 6.1 13.0 0.00 0.00 0.00 76 996.4
20260506222100 86 264 7.8 15.6 0.00 0.00 0.00 76 996.3
20260506221631 87 215 6.1 15.6 0.00 0.00 0.00 75 996.3
20260506221000 87 254 4.3 13.0 0.00 0.00 0.00 75 996.3
20260506220600 87 275 7.0 13.0 0.00 0.00 0.00 74 996.2
20260506220132 87 285 6.1 17.4 0.00 0.00 0.00 74 996.2
20260506220004 87 307 5.2 17.4 0.00 0.00 0.00 75 996.2
20260506215600 86 269 8.7 17.4 0.00 0.00 0.00 75 996.2
20260506215100 86 232 8.7 18.2 0.00 0.00 0.00 75 996.3
20260506214601 87 235 7.0 18.2 0.00 0.00 0.00 74 996.3
20260506214501 87 295 7.0 18.2 0.00 0.00 0.00 74 996.2
20260506214101 87 257 7.0 14.8 0.00 0.00 0.00 72 996.3
20260506213600 87 251 7.0 13.9 0.00 0.00 0.00 72 996.3